Location: Boiro
(42.6475°N, 8.8834°W)
Time: 23:19:19
(UTC+01:00)

A-11 Canister half - Pass Details

Date: 07 December 2021
Orbit: 1516 x 1684 km, 47.2° (Epoch: 18 January)

Event Time Altitude Azimuth Distance (km) Brightness Sun altitude
Rises 07:00:48 0° 220° (SW) 4,706 11.3 -19.8°
Reaches altitude 10° 07:03:53 10° 216° (SW) 3,744 10.8 -19.2°
Maximum altitude 07:13:04 55° 141° (SE) 1,867 9.7 -17.6°
Drops below altitude 10° 07:22:35 10° 68° (ENE) 3,886 11.9 -15.9°
Sets 07:25:51 0° 64° (ENE) 4,895 12.4 -15.3°
